San Carlos, CA

12:40 AM PDT on July 25, 2017 (GMT -0700)
San Carlos

Weather History for KSQL - July, 2013

Change the Weather History Date:

Monday, July 1, 2013

  Actual Average Record
Temperature  
Mean Temperature 76 °F -  
Max Temperature 91 °F 83 °F 102 °F (1972)
Min Temperature 60 °F 52 °F 43 °F (1958)
Cooling Degree Days 10    
Growing Degree Days 26 (Base 50)    
Moisture  
Dew Point 57 °F    
Average Humidity 71    
Maximum Humidity 88    
Minimum Humidity 28    
Precipitation  
Precipitation 0.00 in - - ()
Sea Level Pressure  
Sea Level Pressure 29.84 in    
Wind  
Wind Speed 4 mph (NNW)    
Max Wind Speed 16 mph    
Max Gust Speed -    
Visibility 10 miles    
Events      
Averages and records for this station are not official NWS values.
T = Trace of Precipitation, MM = Missing Value Source: NWS Daily Summary

Daily Weather History Graph

Daily Weather History Graph

Search for Another Location

Airport or City:

Trip Planner

Search our weather history database for the weather conditions in past years. The results will help you decide how hot, cold, wet, or windy it might be!

Date:

Astronomy

Jul. 01, 2013 Rise Set
Actual Time 5:51 AM PDT 8:34 PM PDT
Civil Twilight 5:20 AM PDT 9:05 PM PDT
Nautical Twilight 4:41 AM PDT 9:43 PM PDT
Astronomical Twilight 3:58 AM PDT 10:27 PM PDT
Moon 1:19 AM PDT (7/1) 2:58 PM PDT (7/1)
Length of Visible Light 15h 44m
Length of Day
14h 42m
Waning Crescent, 34% of the Moon is Illuminated
Jul 1
Waning Crescent
Jul 8
New
Jul 15
First Quarter
Jul 22
Full
Jul 29
Last Quarter

Hourly Weather History & Observations

Time (PDT) Temp. Heat Index Dew Point Humidity Pressure Visibility Wind Dir Wind Speed Gust Speed Precip Events Conditions
12:10 AM 64.4 °F - 55.4 °F 73% 29.83 in 10.0 mi NW 5.8 mph - N/A   Clear
12:35 AM 64.4 °F - 55.4 °F 73% 29.83 in 10.0 mi WNW 3.5 mph - N/A   Clear
12:55 AM 64.4 °F - 55.4 °F 73% 29.83 in 10.0 mi NW 3.5 mph - N/A   Clear
1:10 AM 64.4 °F - 55.4 °F 73% 29.83 in 10.0 mi South 4.6 mph - N/A   Clear
1:35 AM 64.4 °F - 55.4 °F 73% 29.83 in 10.0 mi SSW 3.5 mph - N/A   Clear
1:55 AM 64.4 °F - 57.2 °F 77% 29.83 in 10.0 mi Calm Calm - N/A   Clear
2:10 AM 64.4 °F - 57.2 °F 77% 29.83 in 10.0 mi SE 4.6 mph - N/A   Clear
2:35 AM 62.6 °F - 59.0 °F 88% 29.83 in 10.0 mi Calm Calm - N/A   Clear
2:50 AM 62.6 °F - 57.2 °F 82% 29.83 in 10.0 mi Calm Calm - N/A   Clear
3:10 AM 62.6 °F - 57.2 °F 82% 29.83 in 10.0 mi Calm Calm - N/A   Clear
3:35 AM 62.6 °F - 57.2 °F 82% 29.83 in 10.0 mi Calm Calm - N/A   Clear
3:55 AM 62.6 °F - 57.2 °F 82% 29.84 in 10.0 mi Calm Calm - N/A   Clear
4:10 AM 62.6 °F - 57.2 °F 82% 29.84 in 10.0 mi North 3.5 mph - N/A   Clear
4:35 AM 60.8 °F - 57.2 °F 88% 29.84 in 10.0 mi Calm Calm - N/A   Clear
4:55 AM 60.8 °F - 55.4 °F 82% 29.84 in 10.0 mi Calm Calm - N/A   Clear
5:10 AM 60.8 °F - 55.4 °F 82% 29.84 in 10.0 mi Calm Calm - N/A   Clear
5:35 AM 60.8 °F - 55.4 °F 82% 29.83 in 10.0 mi Calm Calm - N/A   Clear
5:55 AM 60.8 °F - 55.4 °F 82% 29.83 in 10.0 mi Calm Calm - N/A   Clear
6:10 AM 62.6 °F - 55.4 °F 77% 29.83 in 10.0 mi Calm Calm - N/A   Clear
6:35 AM 62.6 °F - 57.2 °F 82% 29.83 in 10.0 mi NE 3.5 mph - N/A   Clear
6:47 AM 62.6 °F - 57.2 °F 82% 29.83 in 10.0 mi North 4.6 mph - N/A   Scattered Clouds
6:55 AM 62.6 °F - 57.2 °F 82% 29.83 in 10.0 mi Calm Calm - N/A   Clear
7:47 AM 64.4 °F - 59.0 °F 83% 29.84 in 10.0 mi Calm Calm - N/A   Clear
8:47 AM 66.2 °F - 59.0 °F 78% 29.84 in 10.0 mi Calm Calm - N/A   Clear
10:47 AM 71.6 °F - 64.4 °F 78% 29.84 in 10.0 mi ENE 3.5 mph - N/A   Clear
11:47 AM 77.0 °F - 62.6 °F 61% 29.84 in 10.0 mi NNE 4.6 mph - N/A   Clear
12:57 PM 84.2 °F 84.4 °F 60.8 °F 45% 29.84 in 10.0 mi North 12.7 mph - N/A   Clear
1:48 PM 82.4 °F 82.9 °F 60.8 °F 48% 29.84 in 10.0 mi North 13.8 mph - N/A   Partly Cloudy
2:47 PM 91.4 °F 89.1 °F 53.6 °F 28% 29.83 in 10.0 mi WNW 16.1 mph - N/A   Scattered Clouds
3:50 PM 91.4 °F 89.1 °F 53.6 °F 28% 29.83 in 10.0 mi WNW 10.4 mph - N/A   Partly Cloudy
4:59 PM 84.2 °F 83.8 °F 59.0 °F 42% 29.82 in 10.0 mi NNW 10.4 mph - N/A   Partly Cloudy
5:47 PM 77.0 °F - 57.2 °F 50% 29.82 in 10.0 mi NNW 11.5 mph - N/A   Partly Cloudy
6:47 PM 77.0 °F - 57.2 °F 50% 29.82 in 10.0 mi NW 8.1 mph - N/A   Partly Cloudy
7:47 PM 71.6 °F - 57.2 °F 60% 29.83 in 10.0 mi NNW 8.1 mph - N/A   Scattered Clouds
8:50 PM 71.6 °F - 57.2 °F 60% 29.83 in 10.0 mi NNW 4.6 mph - N/A   Scattered Clouds
9:10 PM 68.0 °F - 57.2 °F 68% 29.83 in 10.0 mi NW 6.9 mph - N/A   Clear
9:35 PM 66.2 °F - 57.2 °F 73% 29.84 in 10.0 mi NNE 4.6 mph - N/A   Clear
9:50 PM 66.2 °F - 59.0 °F 78% 29.84 in 10.0 mi NE 3.5 mph - N/A   Clear
10:10 PM 66.2 °F - 57.2 °F 73% 29.85 in 10.0 mi North 4.6 mph - N/A   Clear
10:35 PM 66.2 °F - 57.2 °F 73% 29.86 in 10.0 mi NE 3.5 mph - N/A   Clear
10:50 PM 66.2 °F - 57.2 °F 73% 29.86 in 10.0 mi North 3.5 mph - N/A   Clear
11:10 PM 66.2 °F - 55.4 °F 68% 29.86 in 10.0 mi NW 5.8 mph - N/A   Clear
11:35 PM 66.2 °F - 55.4 °F 68% 29.86 in 10.0 mi NW 4.6 mph - N/A   Clear
11:55 PM 66.2 °F - 57.2 °F 73% 29.86 in 10.0 mi North 4.6 mph - N/A   Clear